格洛纳斯M-713 COSMOS 2417 [GLONASS]

导读

COSMOS 2417(编号格洛纳斯M-713)是独联体(CIS)于2005年12月25日发射的GLONASS全球导航卫星,归属俄罗斯列舍特涅夫卫星信息系统运营。卫星采用三轴稳定模式,运行于近圆中地球轨道,轨道倾角约65.77°,平均轨道高度约1.91万千米,周期约11小时16分,旨在补网GLONASS星座,为全球提供全天候定位、测速与授时服务,在高纬度地区具备更优覆盖性能。

基本信息
目录编号:
28917
目录名称:
COSMOS 2417 (GLONASS)
国际标识:
2005-050C
轨道中心:
EARTH
卫星名称:
格洛纳斯M-713
卫星全名:
格洛纳斯M-713 COSMOS 2417 [GLONASS]
卫星状态:
在轨 (已飞行7565 天)
发射日期:
2005-12-25 UTC
国别 :
俄罗斯(独联体) (CIS)
星等 :
--
该卫星已列入 空间交会检测服务 Space Conjunction Data Service (SCDS) ,当前飞行风险评估等级: 无高风险
轨道信息
数据来源 国际轨道数据 AOE轨道数据
星历时间 2026-09-09T20:59:12+0800
2天前
查看轨道信息
2026-09-10T00:00:00+0800
1天前
查看轨道信息
半长轴 25507.825km 25507.786km
偏心率 0.0014615 0.0014629
轨道倾角 65.521° 65.520°
近地点辐角 97.750° 97.776°
升交点赤经 313.295° 313.291°
平近点角 261.651° 357.945°
近地点 19092.408km 19092.333km
远地点 19166.968km 19166.965km
周期 675.725分钟 675.723分钟
每日圈数 2.131045 2.13105
详细信息
平衡模式:
三轴稳定
覆盖范围:
全球
运营商:
列舍特涅夫卫星信息系统
运营商所在国:
俄罗斯
制造商(研发单位):
列舍特涅夫卫星信息系统
制造商所在国:
俄罗斯
使用方式:
暂无
卫星简介
格洛纳斯(GLONASS )是苏联/俄罗斯研制卫星导航系统。标准配置为24颗卫星,其中18颗卫星就能保证该系统为俄罗斯境内用户提供全部服务。该卫星已退役。
2D轨道图
3D轨道图
轨道高度分析图
轨道倾角分析图
轨道综合分析图
查看轨道综合分析图
与全量物体交会距离演化趋势
与全量物体交会风险概率演化趋势